Voltar ao catálogo

LEMUR-2-ALYX

AtivoCiênciaSSO
NORAD 69928·PAYLOAD·🇺🇸 United States

Lançado Jul 7, 2026 de Vandenberg Space Force Base

Loading…

Próximas Passagens (próximas 24 horas)

TLE

AtualizadoSource: Space-Track

Época: Sep 14, 2026, 12:50 UTC

1 69928U 26156BM  26257.53517795  .00003318  00000-0  32778-3 0  9993
2 69928  97.7492 156.9314 0007177 298.2110  61.8384 14.92599558 10321

Acompanhe LEMUR-2-ALYX em tempo real com AllMySat

Download on the App Store